Wind_Speed
6 5 4 5 5 4 3 2 2 3 4 4 4 3 3 3 4 5 6 6 6 7 8 8 8 7 8 8 8 7 7 7 7 7 7 7 7 7 7 7 8 8 8 8
7 6 5 5 5 5 5 4 3 3 4 5 5 4 4 4 4 5 6 6 7 7 8 9 8 7 7 8 7 7 7 7 7 7 7 7 7 8 7 8 8 8 9 9
9 7 6 6 5 5 5 4 4 5 6 6 6 5 4 5 5 5 6 7 7 8 8 9 7 7 8 8 7 7 7 7 7 7 7 7 7 8 8 9 9 9 9 9
10 9 8 7 7 7 6 6 6 6 6 7 8 7 6 7 6 7 8 8 8 8 8 8 7 7 7 8 8 7 7 7 7 8 8 8 8 8 9 10 9 10 10 10
10 10 10 9 8 8 8 8 8 7 8 8 9 9 8 8 9 9 9 9 9 9 9 8 8 7 8 8 8 8 8 8 8 8 9 9 9 10 10 11 11 11 11 11
12 11 11 11 10 9 9 10 9 9 9 10 10 10 9 10 10 10 10 10 10 10 10 9 8 8 8 9 9 9 9 9 9 9 10 10 11 11 11 12 12 13 13 13
12 12 12 12 12 11 10 10 10 11 11 11 11 11 11 11 10 10 10 10 10 10 10 10 10 8 8 9 9 9 10 9 10 10 11 11 12 12 13 14 14 14 14 15
13 12 12 12 12 11 11 11 12 13 13 12 11 11 11 11 11 10 10 10 10 10 9 9 9 9 9 9 9 10 9 10 10 11 12 13 13 13 14 14 15 15 15 15
13 12 12 12 13 14 13 13 13 14 13 13 13 12 12 12 11 12 12 12 11 11 10 10 10 10 10 10 11 10 10 11 12 12 13 14 14 14 15 16 16 16 16 16
15 14 14 14 15 15 15 15 15 15 15 15 15 14 13 13 14 14 13 13 12 12 11 10 11 11 12 12 12 11 11 12 13 14 15 15 16 16 17 17 17 17 17 16
16 16 15 15 16 17 17 18 18 18 18 18 18 16 14 15 14 14 14 15 14 13 12 12 12 12 12 13 13 12 13 13 14 15 16 17 17 18 18 19 19 19 18 18
17 17 17 16 17 18 19 19 19 20 20 20 20 18 15 15 15 15 15 16 16 15 14 14 13 13 13 13 14 14 15 15 15 16 17 18 18 19 19 20 20 20 20 20
19 19 18 17 18 19 20 21 21 21 21 22 21 18 16 16 15 15 15 16 17 16 16 15 15 15 14 15 15 16 17 17 17 18 18 19 19 20 20 21 21 21 20 21
20 20 20 19 18 19 21 22 22 22 22 22 21 20 18 18 18 17 17 17 17 17 17 16 17 17 16 16 16 18 18 18 18 19 20 20 21 21 22 22 23 23 22 23
23 23 22 22 21 21 21 22 23 24 23 23 22 21 20 19 19 19 19 18 19 20 19 19 19 19 18 18 18 19 19 20 20 20 21 21 21 22 23 23 24 25 24 25
25 25 25 24 24 23 22 22 23 23 24 24 23 22 21 20 20 20 20 20 20 20 20 20 20 21 21 21 20 20 21 21 21 22 23 23 23 23 24 25 25 26 26 26
28 28 28 27 26 25 25 23 24 23 23 23 23 23 23 22 21 21 21 22 21 21 22 22 21 21 22 22 22 23 23 23 23 25 25 25 25 25 26 26 26 27 27 27
29 29 29 29 29 29 27 25 25 25 23 23 24 24 24 24 24 23 23 23 22 23 23 23 23 24 24 24 24 24 25 25 25 26 26 26 27 27 27 27 27 27 27 27
29 29 30 30 31 30 28 27 27 26 25 24 25 25 25 26 26 26 25 24 24 24 24 25 25 24 25 26 26 26 27 28 28 27 27 27 27 27 28 28 27 28 28 28
30 30 30 30 30 30 28 27 27 27 26 25 26 26 26 26 27 27 26 26 26 26 26 27 27 26 26 27 28 28 28 28 28 27 27 28 28 28 28 29 29 29 29 29
29 30 30 30 30 30 28 27 27 27 27 26 26 26 26 26 26 26 26 26 26 27 27 27 27 28 29 29 28 28 28 28 28 28 28 28 28 29 29 30 30 30 30 30
29 30 31 31 31 30 28 28 28 28 27 26 26 26 27 27 27 27 27 27 27 27 27 27 28 29 30 30 29 29 29 29 29 28 28 29 29 29 30 30 31 31 31 31
30 31 32 32 32 31 30 29 29 28 28 28 28 28 28 28 29 28 28 28 28 28 28 28 28 29 30 30 30 29 29 30 30 30 30 30 30 30 31 31 32 32 32 32
31 31 31 32 32 32 31 30 30 29 29 29 29 29 29 29 29 29 28 28 28 28 29 29 30 30 29 29 31 31 31 31 31 31 31 31 31 31 32 33 33 33 33 33
30 31 31 32 32 31 30 29 30 30 30 30 30 29 29 28 28 29 29 29 29 29 29 30 31 30 29 30 30 32 32 31 31 31 30 31 32 33 33 33 34 34 34 33
30 30 31 31 31 31 30 30 30 30 30 30 29 29 28 28 28 28 29 29 29 29 29 29 29 29 30 31 32 32 31 31 30 31 31 32 33 34 34 34 34 34 34 33
Wind_Direction
212 215 217 225 230 228 245 273 312 331 340 357 355 348 358 9 16 11 4 3 1 2 1 360 356 4 6 4 5 4 359 357 354 350 347 341 338 338 335 336 337 338 335 330
211 209 218 224 225 234 249 265 286 302 317 330 334 336 329 333 350 348 351 347 343 342 348 351 352 359 2 360 357 354 351 346 346 344 344 341 331 327 326 327 330 331 331 328
219 218 229 235 235 240 247 267 282 290 299 308 312 321 322 321 317 325 329 331 331 331 338 340 343 347 348 347 345 345 345 341 338 338 338 336 332 326 323 327 329 329 329 328
223 223 231 237 240 247 251 260 271 279 287 298 305 315 316 316 312 315 318 318 320 323 327 329 330 333 337 338 336 335 336 334 332 333 331 328 327 327 324 323 321 322 323 323
229 231 234 237 246 254 258 261 268 277 284 291 298 302 313 312 311 313 312 312 311 316 315 316 321 325 331 330 331 330 330 325 325 325 324 324 322 318 318 318 315 315 314 313
233 236 238 240 245 251 259 268 271 276 283 289 296 297 307 312 314 313 314 312 305 310 312 314 315 319 322 324 325 326 326 322 322 321 320 318 319 315 314 314 312 310 308 307
235 239 242 243 243 249 258 268 269 275 283 290 293 296 307 308 306 309 311 311 304 302 307 313 311 313 319 325 325 323 324 321 319 318 317 316 314 315 313 312 312 310 308 307
236 237 245 248 249 255 263 271 274 279 283 288 290 300 308 309 306 308 308 306 308 305 309 317 319 314 314 318 322 325 323 322 320 316 315 313 312 312 311 312 313 312 310 309
236 237 243 247 250 255 260 265 273 278 281 285 287 294 303 308 306 304 301 301 303 304 307 310 315 316 312 314 321 324 325 323 322 317 316 316 315 313 310 310 310 308 308 308
243 241 241 247 249 250 256 263 269 277 281 285 286 292 299 304 300 299 297 298 300 303 304 308 310 308 309 313 315 317 319 319 318 315 313 313 313 312 310 310 309 307 309 310
250 249 247 249 252 256 259 263 268 274 279 282 285 290 294 298 297 296 293 296 293 295 296 300 305 306 306 307 311 314 309 310 312 313 310 310 310 310 310 308 307 307 307 307
252 253 250 252 255 258 260 264 269 273 277 280 284 288 292 295 294 293 292 294 293 290 293 298 300 301 301 303 305 307 308 308 309 309 308 307 309 311 311 308 305 306 306 305
253 255 254 252 257 260 262 264 266 271 276 279 282 286 290 291 293 293 293 292 289 287 289 293 295 297 299 300 301 302 303 306 305 305 304 305 306 307 307 308 306 306 307 306
254 256 258 258 260 261 263 265 267 271 274 278 281 283 286 288 289 289 292 290 288 287 286 290 295 296 297 299 301 303 302 302 302 303 304 303 305 305 304 304 305 305 305 304
255 257 260 262 262 264 266 267 269 271 273 276 280 281 283 283 284 285 287 287 287 287 288 293 297 295 296 297 297 298 300 300 302 303 304 303 303 305 304 303 303 303 302 304
256 258 260 261 262 267 268 269 269 270 271 273 276 278 279 279 282 284 285 284 285 285 288 291 292 294 292 293 295 296 297 298 299 300 301 302 303 303 302 302 302 303 302 302
255 259 262 263 262 265 267 270 271 271 271 271 272 275 278 279 281 283 284 283 283 283 284 286 288 290 289 290 292 293 295 295 296 298 298 299 301 302 301 301 300 300 299 300
257 259 261 264 265 266 269 270 271 272 272 272 272 274 276 278 280 281 283 284 283 284 285 284 285 284 286 288 287 289 291 292 294 296 299 300 300 300 300 300 300 299 299 300
258 260 263 265 267 269 269 271 271 271 273 273 273 274 275 277 279 281 282 283 284 284 285 284 281 282 284 285 286 288 289 290 292 293 297 298 298 298 298 298 298 298 298 298
258 259 262 264 266 268 270 272 273 274 274 274 274 274 275 277 278 280 281 282 283 284 285 283 282 281 282 285 287 289 290 291 292 293 295 296 297 296 296 296 296 296 296 297
258 259 260 263 265 268 270 272 275 275 276 275 275 274 274 277 278 279 279 281 281 282 282 281 281 282 282 284 287 287 289 291 292 293 293 294 295 295 295 294 295 295 296 296
259 260 260 263 265 267 269 271 272 273 273 274 273 273 274 277 278 279 281 282 282 281 281 281 281 282 282 283 285 286 289 290 291 292 293 294 295 296 295 295 295 296 296 296
259 260 261 262 264 266 268 269 270 270 271 273 272 273 276 277 278 280 282 283 284 283 281 280 279 281 284 286 287 287 288 288 289 290 291 292 293 294 295 294 295 295 295 296
259 261 262 263 264 266 267 269 269 268 271 273 274 276 279 280 280 281 282 284 284 283 283 281 281 281 282 287 288 288 289 288 288 289 290 291 292 293 294 294 294 294 295 295
260 261 263 264 265 265 266 266 268 270 272 275 276 277 278 279 281 281 281 284 285 283 283 283 283 284 286 288 290 289 288 288 287 288 290 291 292 293 294 294 295 295 295 295
260 262 264 264 266 267 267 267 267 270 272 276 278 277 278 279 281 283 283 283 283 284 285 287 286 287 287 288 289 290 289 289 290 291 291 293 294 294 295 295 295 295 294 294
Height
5901 5903 5903 5903 5902 5903 5903 5903 5903 5903 5902 5901 5900 5900 5900 5900 5899 5898 5897 5896 5895 5893 5892 5891 5890 5889 5887 5886 5885 5884 5883 5881 5880 5879 5878 5877 5877 5876 5875 5874 5873 5871 5870 5869
5901 5902 5902 5902 5902 5902 5902 5902 5902 5902 5901 5901 5900 5900 5900 5899 5899 5898 5897 5896 5895 5893 5892 5891 5889 5888 5887 5885 5884 5883 5882 5880 5879 5878 5877 5876 5875 5875 5874 5873 5872 5870 5869 5867
5899 5901 5900 5901 5901 5901 5901 5901 5901 5901 5901 5900 5900 5900 5900 5899 5898 5897 5897 5895 5894 5893 5892 5890 5889 5887 5886 5885 5883 5882 5881 5879 5878 5877 5876 5875 5874 5873 5872 5871 5870 5869 5867 5866
5898 5899 5899 5900 5900 5900 5901 5901 5900 5900 5900 5900 5900 5899 5899 5898 5897 5896 5895 5894 5893 5892 5890 5889 5887 5886 5884 5883 5882 5880 5879 5878 5877 5876 5875 5874 5873 5872 5870 5870 5868 5867 5866 5864
5896 5897 5897 5898 5899 5899 5899 5899 5899 5899 5899 5899 5899 5898 5899 5897 5896 5895 5894 5893 5891 5890 5888 5887 5886 5884 5882 5881 5880 5878 5877 5876 5875 5874 5873 5872 5871 5870 5869 5867 5866 5865 5863 5862
5894 5895 5896 5897 5897 5898 5898 5898 5898 5897 5897 5898 5898 5897 5897 5895 5895 5893 5892 5891 5889 5888 5887 5885 5884 5882 5881 5879 5878 5877 5876 5874 5873 5872 5871 5870 5869 5868 5867 5865 5863 5862 5861 5859
5893 5894 5894 5895 5895 5896 5896 5897 5896 5896 5896 5896 5896 5895 5896 5894 5892 5891 5890 5888 5887 5886 5884 5883 5881 5880 5879 5878 5876 5875 5874 5872 5871 5870 5869 5868 5867 5865 5864 5862 5861 5859 5858 5856
5890 5891 5892 5893 5893 5894 5894 5894 5895 5894 5894 5894 5893 5893 5894 5892 5890 5889 5887 5886 5884 5883 5882 5881 5879 5878 5877 5876 5874 5873 5871 5870 5869 5868 5866 5865 5864 5862 5861 5859 5857 5856 5854 5853
5887 5889 5890 5890 5891 5892 5891 5892 5892 5892 5891 5891 5891 5891 5891 5890 5888 5887 5885 5884 5883 5881 5880 5879 5877 5876 5875 5874 5872 5870 5869 5868 5867 5865 5864 5862 5860 5859 5857 5856 5854 5852 5850 5849
5884 5886 5887 5887 5888 5888 5889 5889 5889 5889 5888 5888 5888 5888 5888 5887 5886 5884 5883 5882 5880 5879 5877 5876 5875 5874 5873 5871 5870 5868 5866 5865 5864 5862 5861 5859 5857 5855 5854 5852 5850 5848 5846 5844
5881 5882 5884 5884 5884 5885 5885 5886 5885 5885 5885 5885 5884 5887 5885 5884 5882 5881 5880 5878 5877 5876 5874 5873 5872 5871 5869 5868 5866 5865 5863 5862 5861 5859 5858 5856 5854 5852 5850 5848 5846 5844 5843 5841
5877 5878 5879 5880 5881 5881 5881 5881 5882 5882 5882 5881 5881 5884 5881 5880 5878 5877 5876 5875 5874 5873 5871 5870 5869 5867 5866 5865 5863 5862 5860 5859 5857 5856 5854 5852 5850 5848 5846 5844 5842 5841 5839 5837
5873 5874 5875 5876 5878 5877 5877 5877 5877 5877 5877 5876 5876 5880 5877 5876 5875 5873 5872 5871 5870 5869 5867 5867 5865 5864 5863 5861 5859 5858 5857 5855 5853 5852 5850 5848 5846 5844 5842 5840 5838 5836 5834 5832
5868 5869 5871 5872 5872 5872 5872 5873 5873 5873 5872 5872 5872 5873 5873 5872 5871 5870 5868 5867 5866 5865 5864 5863 5862 5860 5858 5857 5855 5854 5852 5851 5849 5848 5846 5844 5842 5839 5837 5835 5833 5831 5829 5827
5863 5864 5865 5866 5867 5867 5868 5868 5868 5868 5868 5868 5868 5868 5868 5867 5866 5865 5864 5863 5862 5861 5859 5858 5857 5855 5854 5852 5851 5849 5848 5846 5844 5842 5841 5839 5837 5834 5832 5830 5827 5825 5823 5821
5857 5858 5859 5860 5861 5862 5862 5863 5863 5863 5863 5863 5863 5863 5862 5862 5861 5860 5859 5858 5857 5856 5855 5854 5852 5851 5849 5848 5846 5844 5842 5840 5838 5837 5835 5833 5831 5828 5826 5824 5821 5819 5817 5815
5851 5852 5853 5854 5855 5855 5857 5858 5857 5857 5857 5857 5857 5858 5856 5856 5855 5855 5854 5853 5852 5851 5850 5848 5846 5845 5843 5842 5840 5838 5836 5835 5833 5831 5828 5826 5824 5822 5819 5817 5814 5812 5810 5808
5845 5846 5846 5847 5848 5849 5853 5851 5851 5851 5851 5851 5851 5851 5850 5850 5849 5849 5848 5847 5846 5844 5843 5841 5840 5838 5836 5835 5833 5832 5830 5828 5826 5824 5822 5819 5817 5815 5812 5810 5807 5805 5803 5801
5838 5839 5839 5840 5840 5841 5844 5844 5844 5844 5844 5844 5844 5844 5844 5843 5843 5842 5841 5840 5839 5838 5836 5834 5832 5831 5830 5828 5827 5825 5823 5821 5819 5817 5815 5812 5810 5807 5805 5803 5800 5798 5796 5794
5830 5831 5833 5833 5833 5834 5838 5837 5837 5838 5837 5837 5837 5837 5837 5836 5836 5835 5834 5833 5831 5830 5829 5827 5825 5824 5822 5821 5819 5818 5816 5814 5812 5809 5807 5804 5802 5800 5797 5795 5793 5790 5788 5786
5823 5823 5824 5825 5826 5827 5829 5829 5830 5831 5831 5830 5830 5830 5829 5829 5829 5828 5826 5825 5823 5822 5821 5819 5818 5817 5815 5813 5811 5809 5807 5805 5803 5801 5798 5796 5794 5792 5789 5787 5785 5783 5780 5778
5815 5816 5817 5817 5819 5822 5821 5822 5823 5823 5822 5822 5823 5822 5822 5821 5820 5820 5819 5818 5816 5815 5813 5811 5810 5808 5807 5805 5802 5801 5799 5796 5794 5793 5790 5788 5786 5783 5781 5779 5777 5774 5772 5770
5806 5808 5809 5810 5813 5813 5814 5814 5814 5814 5814 5814 5814 5814 5814 5814 5813 5812 5811 5810 5808 5806 5805 5803 5801 5800 5798 5796 5794 5792 5790 5788 5786 5784 5782 5780 5777 5775 5773 5770 5768 5766 5763 5761
5798 5799 5800 5801 5803 5804 5805 5806 5806 5806 5807 5806 5806 5806 5806 5805 5805 5804 5802 5801 5800 5798 5796 5794 5792 5790 5789 5787 5785 5783 5782 5780 5778 5775 5773 5771 5769 5766 5764 5761 5759 5756 5754 5751
5790 5791 5791 5793 5794 5795 5797 5797 5798 5799 5799 5799 5798 5798 5798 5797 5796 5795 5794 5792 5791 5789 5788 5786 5784 5782 5780 5779 5777 5775 5773 5771 5769 5766 5764 5762 5760 5757 5754 5752 5749 5746 5744 5741
5782 5783 5783 5785 5786 5787 5788 5788 5789 5790 5791 5790 5790 5790 5789 5788 5787 5786 5785 5784 5782 5781 5779 5777 5775 5773 5772 5770 5768 5766 5763 5761 5759 5757 5755 5753 5750 5748 5745 5742 5739 5736 5734 5731